GW3787 Weather Reports


Display with metric or nautical units.
time (UTC)temp
F
wind
direction
speed
MPH
gust
MPH
rain 1hr
in
rain 24hr
in
rain mn
in
humidity
%
barometer
mb
20260906224557 61 10 1.0 6.0 0.00 0.05 0.02 83 1011.2
20260906223057 61 349 0.0 5.0 0.00 0.05 0.02 83 1011.2
20260906221552 60 14 0.0 5.0 0.00 0.05 0.02 84 1011.1
20260906220051 60 22 0.0 8.0 0.00 0.05 0.02 84 1011.1
20260906214550 60 20 3.0 8.0 0.00 0.05 0.02 83 1011.1
20260906213056 60 25 5.0 9.0 0.00 0.05 0.02 83 1011.0
20260906211550 60 27 1.0 11.0 0.00 0.05 0.02 83 1011.0
20260906210050 60 22 6.0 9.0 0.00 0.05 0.02 81 1011.1
20260906204555 61 17 0.0 9.0 0.00 0.05 0.02 82 1011.2
20260906203048 60 331 0.0 9.0 0.00 0.05 0.02 82 1011.1
20260906201613 60 26 2.0 10.0 0.00 0.05 0.02 81 1011.2
20260906200051 60 20 2.0 8.0 0.00 0.05 0.02 81 1011.3
20260906194556 61 23 3.0 11.0 0.00 0.05 0.02 78 1011.2
20260906193047 62 10 3.0 12.0 0.00 0.05 0.02 78 1011.2
20260906191545 61 22 1.0 14.0 0.00 0.05 0.02 80 1011.0
20260906190043 60 23 9.0 15.0 0.00 0.05 0.02 79 1010.9
20260906184540 59 18 7.0 13.0 0.00 0.05 0.02 79 1011.2
20260906183038 60 31 8.0 14.0 0.00 0.05 0.02 81 1011.7
20260906181543 59 19 2.0 9.0 0.00 0.05 0.02 84 1011.8
20260906180036 57 16 0.0 12.0 0.00 0.05 0.02 86 1012.2
20260906174528 55 5 0.0 5.0 0.01 0.05 0.02 86 1012.9
20260906173028 55 360 0.0 10.0 0.01 0.05 0.02 87 1013.0
20260906171527 55 360 0.0 6.0 0.01 0.05 0.02 87 1013.2
20260906170026 56 10 1.0 6.0 0.00 0.04 0.01 87 1013.3
20260906164526 55 14 0.0 6.0 0.00 0.04 0.01 87 1013.1
20260906163042 55 18 2.0 10.0 0.00 0.04 0.01 87 1013.0
20260906161526 55 18 0.0 6.0 0.00 0.04 0.01 87 1013.1
20260906160025 55 334 0.0 6.0 0.00 0.04 0.01 87 1013.2
20260906154521 55 360 0.0 8.0 0.00 0.04 0.01 86 1013.4
20260906153020 56 290 2.0 13.0 0.00 0.04 0.01 85 1013.5
20260906151519 56 307 5.0 15.0 0.00 0.04 0.01 87 1013.5
20260906150025 57 10 1.0 13.0 0.00 0.06 0.01 87 1013.6
20260906144514 57 350 0.0 4.0 0.00 0.06 0.01 87 1013.5
20260906143011 56 349 0.0 0.0 0.00 0.06 0.01 87 1013.6
20260906141512 56 349 0.0 8.0 0.00 0.06 0.01 87 1013.4
20260906140017 56 10 0.0 1.0 0.00 0.06 0.01 87 1013.6
20260906134506 0 0.0 0.0 0.00 0.06 0.01 1013.5
20260906133002 0 0.0 0.0 0.00 0.06 0.01 1013.4
20260906131600 0 0.0 0.0 0.00 0.06 0.01 1013.5
20260906130106 0 0.0 0.0 0.00 0.06 0.01 1013.7
20260906124606 0 0.0 0.0 0.00 0.06 0.01 1013.6
20260906123053 0 0.0 0.0 0.00 0.06 0.01 1013.7
20260906121550 0 0.0 0.0 0.00 0.06 0.01 1013.9
20260906120048 55 16 0.0 0.0 0.00 0.06 0.01 87 1014.2
20260906114549 55 15 0.0 5.0 0.00 0.06 0.01 87 1014.3
20260906113046 55 31 0.0 0.0 0.00 0.06 0.01 87 1014.2
20260906111558 55 31 1.0 9.0 0.00 0.06 0.01 87 1014.0
20260906110044 54 355 0.0 3.0 0.00 0.06 0.01 87 1014.0
20260906104543 54 19 0.0 3.0 0.00 0.06 0.01 87 1014.1
20260906103043 54 15 2.0 8.0 0.00 0.06 0.01 87 1014.3
20260906101543 54 355 0.0 5.0 0.00 0.06 0.01 87 1014.3
20260906100043 54 360 0.0 3.0 0.00 0.06 0.01 87 1014.3
20260906094540 54 10 0.0 5.0 0.00 0.06 0.01 87 1014.3
20260906093048 54 330 0.0 6.0 0.00 0.06 0.01 87 1014.8
20260906091536 54 20 0.0 5.0 0.00 0.06 0.01 87 1015.1
20260906090038 54 5 0.0 9.0 0.01 0.06 0.01 87 1015.1
20260906084534 54 17 0.0 8.0 0.01 0.06 0.01 87 1015.2
20260906083033 54 20 2.0 10.0 0.01 0.06 0.01 87 1015.1
20260906081546 54 349 0.0 10.0 0.01 0.06 0.01 87 1015.2
20260906080032 54 10 0.0 5.0 0.00 0.05 0.00 87 1015.2
20260906074531 54 21 1.0 11.0 0.00 0.05 0.00 87 1015.2
20260906073045 55 340 0.0 6.0 0.00 0.05 0.00 87 1015.3
20260906071527 55 351 0.0 9.0 0.00 0.05 0.00 87 1015.6
20260906070036 56 17 4.0 11.0 0.00 0.05 0.00 87 1015.7
20260906064522 56 31 3.0 12.0 0.00 0.05 0.00 86 1016.1
20260906063022 56 25 4.0 13.0 0.00 0.05 0.00 87 1016.0
20260906061519 56 360 0.0 4.0 0.00 0.05 0.00 87 1016.2
20260906060017 55 360 0.0 8.0 0.00 0.05 0.05 87 1015.9
20260906054521 55 10 0.0 1.0 0.00 0.05 0.05 87 1015.9
20260906053015 55 15 1.0 11.0 0.00 0.05 0.05 86 1015.8
20260906051520 55 25 1.0 11.0 0.00 0.05 0.05 86 1015.9
20260906050014 55 329 0.0 2.0 0.01 0.05 0.05 86 1016.0
20260906044513 55 350 0.0 8.0 0.03 0.05 0.05 86 1015.2
20260906043016 55 351 0.0 1.0 0.03 0.05 0.05 86 1015.2
20260906041513 56 5 0.0 12.0 0.03 0.05 0.05 85 1015.1
20260906040012 57 16 5.0 14.0 0.02 0.04 0.04 82 1015.3
20260906034512 58 295 0.0 5.0 0.00 0.02 0.02 77 1017.1
20260906033006 57 360 0.0 8.0 0.00 0.02 0.02 77 1015.2
20260906031504 57 19 1.0 5.0 0.00 0.02 0.02 77 1015.0
20260906030002 57 22 0.0 6.0 0.00 0.02 0.02 77 1014.4
20260906024502 57 20 3.0 8.0 0.00 0.02 0.02 75 1014.2
20260906023130 57 20 5.0 11.0 0.00 0.02 0.02 74 1014.1
20260906021600 58 21 6.0 10.0 0.00 0.02 0.02 72 1014.0
20260906020059 59 20 5.0 13.0 0.00 0.02 0.02 71 1014.1
20260906014623 60 31 8.0 13.0 0.00 0.02 0.02 70 1014.0
20260906013100 61 21 3.0 10.0 0.00 0.02 0.02 68 1013.6
20260906011559 61 20 5.0 10.0 0.00 0.02 0.02 68 1013.4
20260906010057 62 20 3.0 11.0 0.00 0.02 0.02 66 1013.4
20260906004609 64 24 6.0 13.0 0.00 0.02 0.02 63 1013.5
20260906003058 64 360 4.0 13.0 0.00 0.02 0.02 63 1013.3
20260906001556 65 32 4.0 14.0 0.00 0.02 0.02 63 1013.5
20260906000106 65 17 3.0 10.0 0.00 0.02 0.02 61 1013.4
20260905234600 65 348 1.0 12.0 0.00 0.02 0.02 62 1013.5
20260905233057 66 19 5.0 12.0 0.00 0.02 0.02 61 1013.5
20260905231555 66 23 7.0 12.0 0.00 0.02 0.02 59 1013.3
20260905230053 67 14 2.0 11.0 0.00 0.02 0.02 60 1013.2